Content
SEND FEEDBACK

Daily
Averages
Monthly
Summary
South Korea

OKHU, SOUTH KOREA


Home > Asia > South Korea
Elevation: 33 feet     Latitude: 35 54N     Longitude: 126 37E

WEATHER
 
SELECT A DAY
Number of Records: 145,275;   Date Range: 7/1/96 - 8/31/14
 
SHARE

PRINT THIS DATA

[ ← Previous Day ]
WEATHER ALMANAC - JANUARY 31, 2013
[ Next Day → ]
[ °C ]   °F
Weather ElementAverageHighLow
Temperature45.7 °F54.5 °F (2:55 pm)35.6 °F (4:55 am)
Dewpoint35.1 °F40.1 °F (11:55 pm)31.8 °F (6:55 am)
Humidity67.9 %88 % (4:55 am)50 % (3:55 pm)
Barometer30.37 in30.45 in (7:55 am)30.26 in (11:55 pm)
Wind Speed6.8 mph9.2 mph (3:55 am)
Weather ElementAverage
Visibility8.2 mi
Wind DirectionENE (79.6 °)

Weather ElementTotal
Precipitation0.01 in
Heating Degree Days20 (Base 65)
Averaged from 26 records on January 31, 2013
WEATHER CONDITIONS BREAKOUT
WIND DIRECTION BREAKOUT
WEATHER BY HOUR - JANUARY 31, 2013
[ °C ]   °F
Local TimeTemperatureDewpointHumidityBarometerVisibilityWind DirectionWind SpeedGust SpeedPrecipitationEventsConditions
1:55 AM38.8 °F33.8 °F82 %30.43 in7.0 miEast (100°)6.9 mphPartly Cloudy
2:55 AM38.1 °F33.1 °F82 %30.43 in7.0 miESE (110°)8.1 mphClear
3:55 AM37.4 °F33.6 °F86 %30.42 in6.0 miEast (100°)9.2 mphClear
4:55 AM35.6 °F32.4 °F88 %30.43 in5.0 miENE (60°)4.6 mphClear
5:55 AM37.8 °F32.9 °F83 %30.43 in7.0 miENE (70°)5.8 mphOvercast
6:27 AM37.4 °F32.0 °F81 %30.43 in8.0 miENE (60°)5.8 mphMostly Cloudy
6:55 AM36.1 °F31.8 °F84 %30.43 in8.0 miENE (60°)8.1 mphPartly Cloudy
7:55 AM36.7 °F32.0 °F83 %30.45 in7.0 miENE (60°)5.8 mphClear
8:55 AM40.1 °F34.2 °F79 %30.45 in7.0 miENE (60°)6.9 mphPartly Cloudy
9:55 AM44.1 °F33.3 °F66 %30.45 in7.0 miENE (70°)4.6 mphClear
10:55 AM46.8 °F33.6 °F60 %30.44 in8.0 miNE (50°)5.8 mphClear
11:55 AM50.9 °F35.4 °F55 %30.43 in9.0 miEast (90°)9.2 mphClear
12:55 PM52.5 °F37.4 °F56 %30.40 in7.0 miESE (110°)6.9 mphPartly Cloudy
1:55 PM53.4 °F39.4 °F59 %30.37 in7.0 miEast (90°)6.9 mphClear
2:55 PM54.5 °F38.7 °F55 %30.35 in9.0 miEast (90°)6.9 mphClear
3:55 PM54.0 °F35.4 °F50 %30.33 in10.0 miENE (70°)5.8 mphClear
4:55 PM52.3 °F37.8 °F58 %30.32 in8.0 miEast (80°)8.1 mphClear
5:55 PM50.9 °F35.2 °F55 %30.33 in10.0 miEast (80°)9.2 mphClear
6:55 PM50.0 °F35.2 °F57 %30.33 in10.0 miENE (70°)6.9 mphMostly Cloudy
7:55 PM50.4 °F34.9 °F55 %30.32 in9.0 miENE (70°)5.8 mphMostly Cloudy
8:55 PM50.0 °F35.1 °F57 %30.31 in10.0 miEast (80°)5.8 mphOvercast
9:55 PM49.5 °F35.2 °F58 %30.29 in10.0 miEast (80°)8.1 mphMostly Cloudy
10:24 PM48.2 °F35.6 °F62 %30.29 in10.0 miEast (100°)5.8 mphRainLight Rain
10:35 PM48.2 °F37.4 °F66 %30.29 in9.0 miEast (90°)5.8 mphRainLight Rain
10:55 PM47.7 °F38.3 °F70 %30.29 in9.0 miEast (80°)4.6 mph0.00 inRainLight Rain
11:55 PM46.6 °F40.1 °F78 %30.26 in8.0 miEast (90°)8.1 mph0.01 inRainLight Rain
Hourly data recorded from RKJK, located miles away from Okhu, South Korea







STORIES FROM OUR PARTNERS